Location: *
(50.6089°N, 2.2719°E)
Time: 01:46:58
(UTC+00:00)

Cosmos 1939 Rocket - Pass Details

Date: 18 October 2019
Orbit: 533 x 584 km, 97.4° (Epoch: 16 November)

Event Time Altitude Azimuth Distance (km) Brightness Sun altitude
Rises 17:53:52 0° 142° (SE) 2,725 6.0 -10.3°
Reaches altitude 10° 17:56:05 10° 134° (SE) 1,844 5.1 -10.6°
Maximum altitude 17:59:45 35° 68° (ENE) 918 3.5 -11.2°
Drops below altitude 10° 18:03:28 10° 2° (N) 1,885 5.5 -11.8°
Sets 18:05:46 0° 354° (N) 2,796 6.5 -12.2°
